Location: Kelshall
(52.0000°N, 0.0500°W)
Time: 21:46:33
(UTC+00:00)

ATLAS 2AS CENTAUR R/B - Pass Details

Date: 19 January 2021
Orbit: 947 x 1265 km, 63.7° (Epoch: 13 February)

Event Time Altitude Azimuth Distance (km) Brightness Sun altitude
Rises 22:39:41 0° 308° (NW) 4,184 6.3 -53.5°
Reaches altitude 10° 22:42:40 10° 314° (NW) 3,186 5.6 -53.8°
Enters shadow 22:43:42 14° 317° (NW) 2,848 5.3 -53.9°
